• In Moldova, Republic
  • List of Countries
  • For 7 days
  • Water Temperature
  • Satellite Maps
  • Weather Map
  • Weather Widgets
  • user-avatar
    Login

    Hourly Weather Mostovaya

    Today, 24 September, Monday

    Time Temperature Precipitation Wind Pressure Humidity
    00:00 +7°C° 0 mm 2 mps 736 mmHg 93%
    01:00 +6°C° 0 mm 2 mps 735 mmHg 94%
    02:00 +6°C° 0 mm 2 mps 735 mmHg 97%
    03:00 +5°C° 0 mm 2 mps 735 mmHg 97%
    04:00 +5°C° 0 mm 2 mps 735 mmHg 97%
    05:00 +5°C° 0 mm 2 mps 734 mmHg 97%
    06:00 +6°C° 0.1 mm 2 mps 734 mmHg 95%
    07:00 +7°C° 0.1 mm 2 mps 734 mmHg 93%
    08:00 +8°C° 0 mm 2 mps 734 mmHg 90%
    09:00 +8°C° 1.2 mm 3 mps 733 mmHg 91%
    10:00 +8°C° 1.2 mm 3 mps 733 mmHg 92%
    11:00 +8°C° 1.2 mm 3 mps 732 mmHg 93%
    12:00 +7°C° 1.8 mm 4 mps 731 mmHg 93%
    13:00 +7°C° 1.8 mm 4 mps 730 mmHg 93%
    14:00 +7°C° 1.8 mm 4 mps 729 mmHg 93%
    15:00 +6°C° 2.4 mm 4 mps 728 mmHg 93%
    16:00 +6°C° 2.4 mm 4 mps 727 mmHg 94%
    17:00 +6°C° 2.4 mm 4 mps 726 mmHg 95%
    18:00 +6°C° 3.2 mm 5 mps 726 mmHg 95%
    19:00 +6°C° 3.2 mm 5 mps 725 mmHg 95%
    20:00 +6°C° 3.2 mm 5 mps 725 mmHg 95%
    21:00 +6°C° 2 mm 5 mps 725 mmHg 95%
    22:00 +4°C° 2 mm 6 mps 725 mmHg 94%
    23:00 +4°C° 2 mm 6 mps 725 mmHg 93%

    Tomorrow, 25 September, Tuesday

    Time Temperature Precipitation Wind Pressure Humidity
    00:00 +5°C° 1.2 mm 6 mps 726 mmHg 93%
    01:00 +5°C° 1.2 mm 7 mps 726 mmHg 92%
    02:00 +5°C° 1.2 mm 7 mps 727 mmHg 91%
    03:00 +5°C° 0.5 mm 7 mps 728 mmHg 91%
    04:00 +4°C° 0.5 mm 7 mps 728 mmHg 90%
    05:00 +4°C° 0.5 mm 7 mps 729 mmHg 90%
    06:00 +4°C° 0.2 mm 7 mps 730 mmHg 89%
    07:00 +4°C° 0.2 mm 6 mps 731 mmHg 89%
    08:00 +4°C° 0.2 mm 6 mps 732 mmHg 88%
    09:00 +4°C° 0.1 mm 6 mps 733 mmHg 86%
    10:00 +5°C° 0.1 mm 6 mps 734 mmHg 85%
    11:00 +5°C° 0.1 mm 6 mps 735 mmHg 83%
    12:00 +5°C° 0 mm 6 mps 735 mmHg 80%
    13:00 +5°C° 0 mm 6 mps 736 mmHg 77%
    14:00 +7°C° 0 mm 6 mps 737 mmHg 74%
    15:00 +6°C° 0 mm 5 mps 737 mmHg 74%
    16:00 +6°C° 0 mm 5 mps 738 mmHg 74%
    17:00 +6°C° 0 mm 5 mps 739 mmHg 73%
    18:00 +5°C° 0 mm 5 mps 740 mmHg 74%
    19:00 +5°C° 0 mm 5 mps 740 mmHg 76%
    20:00 +3°C° 0 mm 5 mps 741 mmHg 77%
    21:00 +4°C° 0 mm 4 mps 742 mmHg 76%
    22:00 +3°C° 0 mm 4 mps 742 mmHg 76%
    23:00 +3°C° 0 mm 4 mps 743 mmHg 76%

    Day after tomorrow, 26 September, Wednesday

    Time Temperature Precipitation Wind Pressure Humidity
    00:00 +1°C° 0 mm 4 mps 744 mmHg 75%
    01:00 +1°C° 0 mm 4 mps 744 mmHg 75%
    02:00 +1°C° 0 mm 3 mps 745 mmHg 75%
    03:00 +1°C° 0 mm 3 mps 745 mmHg 78%
    04:00 0°C° 0 mm 3 mps 746 mmHg 80%
    05:00 0°C° 0 mm 3 mps 746 mmHg 82%
    06:00 +1°C° 0 mm 3 mps 746 mmHg 81%
    07:00 +2°C° 0 mm 3 mps 747 mmHg 79%
    08:00 +3°C° 0 mm 3 mps 747 mmHg 77%
    09:00 +5°C° 0 mm 3 mps 747 mmHg 72%
    10:00 +6°C° 0 mm 4 mps 746 mmHg 67%
    11:00 +8°C° 0 mm 4 mps 746 mmHg 63%
    12:00 +10°C° 0 mm 4 mps 746 mmHg 59%
    13:00 +10°C° 0 mm 5 mps 745 mmHg 56%
    14:00 +10°C° 0 mm 5 mps 744 mmHg 53%
    15:00 +9°C° 0 mm 5 mps 744 mmHg 57%
    16:00 +9°C° 0 mm 5 mps 743 mmHg 62%
    17:00 +8°C° 0 mm 5 mps 742 mmHg 67%
    18:00 +7°C° 0.5 mm 6 mps 741 mmHg 73%
    19:00 +7°C° 0.5 mm 6 mps 740 mmHg 80%
    20:00 +5°C° 0.5 mm 7 mps 739 mmHg 87%
    21:00 +5°C° 1.5 mm 7 mps 738 mmHg 88%
    22:00 +5°C° 1.5 mm 8 mps 737 mmHg 89%
    23:00 +5°C° 1.5 mm 8 mps 736 mmHg 90%

    27 September, Thursday

    Time Temperature Precipitation Wind Pressure Humidity
    00:00 +5°C° 1 mm 7 mps 735 mmHg 91%
    01:00 +5°C° 1 mm 7 mps 735 mmHg 91%
    02:00 +5°C° 1 mm 7 mps 734 mmHg 92%
    03:00 +7°C° 0.6 mm 6 mps 734 mmHg 92%
    04:00 +7°C° 0.6 mm 5 mps 734 mmHg 93%
    05:00 +7°C° 0.6 mm 5 mps 734 mmHg 93%
    06:00 +7°C° 0.1 mm 5 mps 734 mmHg 92%
    07:00 +7°C° 0.1 mm 4 mps 734 mmHg 91%
    08:00 +7°C° 0.1 mm 4 mps 734 mmHg 89%
    09:00 +8°C° 0 mm 5 mps 735 mmHg 84%
    10:00 +8°C° 0 mm 5 mps 735 mmHg 78%
    11:00 +9°C° 0 mm 5 mps 735 mmHg 72%
    12:00 +9°C° 0 mm 5 mps 735 mmHg 70%
    13:00 +9°C° 0 mm 5 mps 735 mmHg 67%
    14:00 +9°C° 0 mm 5 mps 735 mmHg 65%
    15:00 +10°C° 0 mm 4 mps 735 mmHg 69%
    16:00 +8°C° 0 mm 4 mps 735 mmHg 73%
    17:00 +8°C° 0 mm 3 mps 735 mmHg 77%
    18:00 +8°C° 0 mm 3 mps 735 mmHg 80%
    19:00 +7°C° 0 mm 3 mps 736 mmHg 83%
    20:00 +7°C° 0 mm 3 mps 736 mmHg 86%
    21:00 +7°C° 0 mm 3 mps 736 mmHg 87%
    22:00 +7°C° 0 mm 3 mps 735 mmHg 88%
    23:00 +7°C° 0 mm 3 mps 735 mmHg 88%

    28 September, Friday

    Time Temperature Precipitation Wind Pressure Humidity
    00:00 +7°C° 0.1 mm 3 mps 735 mmHg 89%
    01:00 +7°C° 0.1 mm 3 mps 735 mmHg 89%
    02:00 +7°C° 0.1 mm 3 mps 734 mmHg 89%
    03:00 +7°C° 0.5 mm 3 mps 733 mmHg 91%
    04:00 +7°C° 0.5 mm 3 mps 733 mmHg 93%
    05:00 +8°C° 0.5 mm 3 mps 732 mmHg 95%
    06:00 +8°C° 1.9 mm 3 mps 732 mmHg 95%
    07:00 +7°C° 1.9 mm 3 mps 731 mmHg 95%
    08:00 +7°C° 1.9 mm 2 mps 731 mmHg 96%
    09:00 +8°C° 0.4 mm 3 mps 732 mmHg 91%
    10:00 +8°C° 0.4 mm 3 mps 733 mmHg 87%
    11:00 +9°C° 0.4 mm 3 mps 733 mmHg 83%
    12:00 +8°C° 0 mm 4 mps 734 mmHg 77%
    13:00 +10°C° 0 mm 4 mps 735 mmHg 70%
    14:00 +10°C° 0 mm 4 mps 735 mmHg 64%
    15:00 +10°C° 0 mm 3 mps 736 mmHg 68%
    16:00 +9°C° 0 mm 2 mps 736 mmHg 71%
    17:00 +8°C° 0 mm 2 mps 737 mmHg 75%
    18:00 +7°C° 0 mm 1 mps 737 mmHg 79%
    19:00 +6°C° 0 mm 1 mps 737 mmHg 83%
    20:00 +5°C° 0 mm 1 mps 738 mmHg 87%
    21:00 +5°C° 0 mm 1 mps 738 mmHg 87%
    22:00 +4°C° 0 mm 1 mps 738 mmHg 87%
    23:00 +3°C° 0 mm 0 mps 739 mmHg 88%

    29 September, Saturday

    Time Temperature Precipitation Wind Pressure Humidity
    00:00 +4°C° 0.1 mm 1 mps 739 mmHg 87%
    01:00 +4°C° 0.1 mm 1 mps 739 mmHg 85%
    02:00 +4°C° 0.1 mm 1 mps 739 mmHg 84%
    03:00 +3°C° 0.7 mm 2 mps 740 mmHg 84%
    04:00 +3°C° 0.7 mm 2 mps 740 mmHg 84%
    05:00 +3°C° 0.7 mm 2 mps 740 mmHg 85%
    06:00 +3°C° 0.6 mm 2 mps 741 mmHg 84%
    07:00 +3°C° 0.6 mm 2 mps 741 mmHg 84%
    08:00 +2°C° 0.6 mm 3 mps 741 mmHg 84%
    09:00 +4°C° 0 mm 2 mps 742 mmHg 80%
    10:00 +5°C° 0 mm 2 mps 742 mmHg 76%
    11:00 +6°C° 0 mm 2 mps 743 mmHg 73%
    12:00 +6°C° 0 mm 2 mps 743 mmHg 69%
    13:00 +7°C° 0 mm 2 mps 743 mmHg 66%
    14:00 +7°C° 0 mm 2 mps 744 mmHg 63%
    15:00 +7°C° 0 mm 2 mps 744 mmHg 68%
    16:00 +7°C° 0 mm 1 mps 744 mmHg 74%
    17:00 +6°C° 0 mm 1 mps 744 mmHg 80%
    18:00 +5°C° 0 mm 1 mps 745 mmHg 84%
    19:00 +4°C° 0 mm 1 mps 745 mmHg 87%
    20:00 +3°C° 0 mm 1 mps 746 mmHg 90%
    21:00 +3°C° 0 mm 1 mps 746 mmHg 90%
    22:00 +2°C° 0 mm 2 mps 746 mmHg 90%
    23:00 +1°C° 0 mm 2 mps 746 mmHg 91%
    Show more